SCP
2 2 2 1 1 1 1 2 2 2 3 3 3 3 2 2 1 1 1 1 1 1 1 0 0 0 0 0 0 0 0 0 0 0 0 0 0 0 0 0 0 0 0
2 1 1 1 1 1 1 2 2 3 3 3 3 3 2 2 1 1 1 1 1 1 1 0 0 0 0 0 0 0 0 0 0 0 0 0 0 0 0 0 0 0 0
1 1 1 1 1 1 1 2 2 3 3 4 3 3 2 2 1 1 1 1 1 0 0 0 0 0 0 0 0 0 0 0 0 0 0 0 0 0 0 0 0 0 0
1 1 1 1 1 1 1 2 2 3 3 3 3 3 2 2 1 1 0 0 0 0 0 0 0 0 0 0 0 0 0 0 0 0 0 0 0 0 0 0 0 0 0
1 1 1 1 1 1 1 2 2 3 3 3 2 2 2 1 1 0 0 0 0 0 0 0 0 0 0 0 0 0 0 0 0 0 0 0 0 0 0 0 0 0 0
1 1 1 1 1 1 1 1 2 2 2 1 1 1 1 1 0 0 0 0 0 0 0 0 0 0 0 0 0 0 0 0 0 0 0 0 0 0 0 0 0 0 0
1 1 1 1 1 1 1 1 1 1 1 1 1 1 0 0 0 0 0 0 0 0 0 0 0 0 0 0 0 0 0 0 0 0 0 0 0 0 0 0 0 0 0
0 1 1 1 1 1 1 1 0 0 0 0 0 0 0 0 0 0 0 0 0 0 0 0 0 0 0 0 0 0 0 0 0 0 0 0 0 0 0 0 0 0 0
0 0 0 0 0 0 0 0 0 0 0 0 0 0 0 0 0 0 0 0 0 0 0 0 0 0 0 0 0 0 0 0 0 0 0 0 0 0 0 0 0 0 0
0 0 0 0 0 0 0 0 0 0 0 0 0 0 0 0 0 0 0 0 0 0 0 0 0 0 0 0 0 0 0 0 0 0 0 0 0 0 0 0 0 0 0
0 0 0 0 0 0 0 0 0 0 0 0 0 0 0 0 0 0 0 0 0 0 0 0 0 0 0 0 0 0 0 0 0 0 0 0 0 0 0 0 0 0 0
0 0 0 0 0 0 0 0 0 0 0 0 0 0 0 0 0 0 0 0 0 0 0 0 0 0 0 0 0 0 0 0 0 0 0 0 0 0 0 0 0 0 0
0 0 0 0 0 0 0 0 0 0 0 0 0 0 0 0 0 0 0 0 0 0 0 0 0 0 0 0 0 0 0 0 0 0 0 0 0 0 0 0 0 0 0
0 0 0 0 0 0 0 0 0 0 0 0 0 0 0 0 0 0 0 0 -0 -0 0 0 0 0 0 0 0 0 0 0 0 0 0 0 0 0 0 0 0 0 0
0 0 0 0 0 0 0 0 0 0 0 0 0 0 0 0 0 0 0 0 0 -0 0 0 0 0 0 0 0 0 0 0 0 0 0 0 0 0 0 0 0 0 0
0 0 0 0 0 0 0 0 0 0 0 0 0 0 0 0 0 0 0 0 0 0 0 0 0 0 0 0 0 0 0 0 0 0 0 0 0 0 0 0 0 0 0
0 0 0 0 0 0 0 0 0 0 0 0 0 0 0 0 0 0 0 0 0 0 0 0 0 0 0 0 0 0 0 0 0 0 0 0 0 0 0 0 0 0 0
0 0 0 0 0 0 0 0 0 0 0 0 0 0 0 0 0 0 0 0 0 0 0 0 0 0 0 0 0 0 0 0 0 0 0 0 0 0 0 0 0 0 0
0 0 0 0 0 0 0 0 0 0 0 0 0 0 0 0 0 0 0 0 0 0 0 0 0 0 0 0 0 0 0 0 0 0 0 0 0 0 0 0 0 0 0
0 0 0 0 0 0 0 0 0 0 0 0 0 0 0 0 0 0 0 0 0 0 0 0 0 0 0 0 0 0 0 0 0 0 0 0 0 0 0 0 0 0 0
0 0 0 0 0 0 0 0 0 0 0 0 0 0 0 0 0 0 0 0 0 0 0 0 0 0 0 0 0 0 0 0 0 0 0 0 0 0 0 0 0 0 0
0 0 0 0 0 0 0 0 0 0 0 0 0 0 0 0 0 0 0 0 0 0 0 0 0 0 0 0 0 0 0 0 0 0 0 0 0 0 0 0 0 0 0
0 0 0 0 0 0 0 0 0 0 0 0 0 0 0 0 0 0 0 0 0 0 0 0 0 0 0 0 0 0 0 0 0 0 0 0 0 0 0 0 0 0 0
0 0 0 0 0 0 0 0 0 0 0 0 0 0 0 0 0 0 0 0 0 0 0 0 0 0 0 0 0 0 0 0 0 0 0 0 0 0 0 0 0 0 0
0 0 0 0 0 0 0 0 0 0 0 0 0 0 0 0 0 0 0 0 0 0 0 0 0 0 0 0 0 0 0 0 0 0 0 0 0 0 0 0 0 0 0
0 0 0 0 0 0 0 0 0 0 0 0 0 0 0 0 0 0 0 0 0 0 0 0 0 0 0 0 0 0 0 0 0 0 0 0 0 0 0 0 0 0 0
Wind_Speed
6 7 6 4 4 3 2 4 7 8 8 7 6 6 4 4 3 3 5 5 5 5 5 4 4 4 3 3 3 3 3 2 1 2 2 2 1 1 0 0 1 0 0
7 7 7 4 3 2 1 4 6 7 8 6 5 4 5 4 4 4 5 5 6 5 5 5 4 3 4 3 3 2 2 2 2 2 1 2 3 3 2 2 1 2 2
9 8 7 5 4 2 0 2 3 5 6 7 7 7 5 4 4 5 5 5 6 6 6 6 5 4 3 3 3 3 3 2 2 2 1 1 1 3 3 3 3 3 2
8 7 6 6 4 3 4 4 4 4 5 7 8 9 6 5 4 4 5 7 7 7 7 6 6 6 4 4 4 4 3 3 2 2 3 2 1 0 3 3 3 4 3
10 9 8 7 7 8 7 7 8 9 8 7 6 7 7 6 6 7 8 7 7 8 8 8 7 7 6 6 6 6 5 3 3 2 2 2 3 2 1 2 4 4 3
11 11 11 11 12 11 10 10 11 12 10 10 9 9 10 10 10 8 8 6 6 7 8 8 7 7 6 6 6 6 6 5 5 4 3 2 2 1 1 1 2 3 3
11 12 13 13 13 13 13 12 14 13 12 13 12 11 11 10 10 9 8 7 6 6 7 7 7 7 6 6 6 6 5 5 5 4 2 2 1 0 0 0 1 2 3
12 13 13 13 14 14 14 14 15 14 14 14 13 12 12 9 8 9 8 8 6 6 7 7 7 7 7 6 6 5 4 4 4 4 3 2 2 2 1 1 0 2 3
12 13 14 14 14 14 14 13 14 15 14 14 14 13 12 12 11 10 9 7 6 6 7 7 7 6 7 6 6 5 4 4 4 4 4 3 2 2 1 1 1 1 1
11 12 13 13 13 13 13 14 14 15 14 13 12 12 12 11 10 9 10 8 7 7 7 7 7 7 7 7 6 5 5 6 5 3 4 3 2 2 2 1 1 2 3
11 11 11 12 12 12 13 13 13 13 13 12 12 12 11 10 10 9 8 8 7 7 7 7 7 8 8 7 7 6 6 6 5 5 4 4 3 2 2 2 1 0 1
10 11 11 12 12 12 12 12 12 12 11 11 11 11 10 10 10 9 8 8 8 7 7 7 8 8 8 7 7 7 6 6 5 5 5 5 4 3 2 2 2 2 2
11 11 11 11 11 11 11 11 11 11 10 10 11 11 10 9 9 8 8 8 8 7 7 8 8 7 7 7 6 6 5 5 5 5 5 5 4 4 3 3 3 3 2
10 11 10 10 10 10 10 10 10 9 10 10 10 9 8 8 7 7 7 7 7 7 7 6 6 6 6 5 5 5 5 6 6 5 5 5 5 5 5 3 3 3 3
11 11 10 9 9 10 9 9 8 8 8 8 8 7 6 6 7 7 6 6 6 6 5 5 4 4 4 3 4 4 5 6 6 6 6 6 8 6 3 2 3 3 3
11 11 10 10 9 9 8 7 7 6 7 7 7 6 6 6 6 5 5 5 5 4 4 4 3 2 2 3 5 6 4 5 6 6 7 7 6 6 7 9 9 7 5
10 9 9 8 7 6 6 6 5 5 6 6 6 6 5 5 4 5 4 4 3 3 3 2 1 1 1 2 5 9 5 5 5 6 6 6 5 5 4 7 11 11 13
9 8 7 7 6 5 5 5 5 6 6 6 5 4 4 4 4 4 3 2 1 1 0 1 1 2 3 3 4 8 6 5 6 6 6 5 5 5 5 6 7 8 8
8 7 6 6 5 5 4 6 5 5 5 5 4 3 4 3 3 2 1 1 1 1 1 2 2 2 3 4 4 5 4 5 6 7 7 7 5 8 9 7 8 10 10
6 6 6 6 5 4 5 6 5 5 4 3 3 2 2 2 2 0 1 1 1 2 2 2 2 2 3 4 4 5 3 4 6 6 7 10 9 11 12 7 7 9 9
7 6 6 5 4 4 5 5 4 3 2 2 2 1 1 1 1 0 1 1 2 2 3 3 3 2 1 2 5 8 3 4 5 6 6 7 13 15 15 11 6 9 10
6 6 5 4 3 4 5 4 2 1 2 1 1 0 1 1 1 0 1 1 2 3 3 3 4 3 3 3 6 10 9 8 4 5 6 8 15 16 15 9 9 12 9
5 4 5 5 3 3 4 4 1 1 1 1 1 2 2 2 1 1 1 1 2 2 2 3 3 3 3 4 8 10 11 12 6 6 12 14 15 13 9 10 13 9 4
5 4 5 5 3 2 3 3 2 2 1 1 2 2 2 2 2 0 1 2 2 2 2 2 2 3 3 4 5 6 6 9 8 7 11 13 12 9 8 8 7 5 4
4 4 5 4 3 3 2 3 3 2 1 2 3 2 2 2 1 0 1 2 2 3 3 1 1 2 4 5 9 7 6 6 6 7 5 4 5 6 6 6 6 5 4
4 5 4 4 3 3 3 3 3 3 2 2 3 2 2 1 1 2 2 2 1 2 3 3 2 2 5 10 11 12 12 12 11 5 4 5 6 6 6 6 6 5 4
Wind_Direction
105 87 79 91 99 96 159 182 170 170 162 158 153 144 135 120 101 96 105 109 109 109 105 104 98 97 102 111 111 100 85 57 25 49 4 343 343 346 346 27 79 31 181
96 88 85 77 90 92 182 192 183 176 172 163 147 129 120 104 93 88 83 88 96 98 103 106 104 99 100 96 88 93 99 63 36 86 64 348 346 355 14 24 38 18 17
106 98 92 75 72 65 96 185 179 168 155 136 120 109 97 90 86 79 73 64 76 83 89 96 98 95 101 103 89 86 108 109 44 44 115 147 261 316 339 18 34 18 19
79 84 86 84 78 61 47 66 86 101 118 128 136 138 134 125 107 94 83 68 62 67 73 75 82 81 78 78 72 68 79 105 93 47 42 72 120 101 327 339 1 8 16
67 71 68 68 58 56 56 63 71 70 75 88 109 113 106 104 100 95 90 78 66 63 67 69 71 72 71 69 65 62 60 68 84 76 58 52 46 56 95 315 333 341 338
65 67 66 65 61 58 58 61 70 68 68 76 81 96 105 109 108 100 95 82 72 63 60 66 70 71 69 65 65 65 65 66 71 66 64 71 68 40 70 268 300 311 309
61 62 64 63 61 58 58 63 69 68 66 72 73 79 89 94 97 96 91 87 78 70 61 63 64 66 67 66 65 67 64 61 67 64 59 60 63 73 129 177 294 305 307
62 63 62 63 63 61 61 65 68 68 66 70 71 70 75 79 80 81 86 85 83 79 75 73 67 64 64 63 59 56 52 52 52 49 44 41 25 35 58 101 25 337 326
66 67 66 65 65 64 62 65 71 70 67 70 72 71 73 77 80 80 80 81 82 85 77 76 72 65 61 58 57 51 41 43 42 41 37 31 10 21 35 70 134 149 296
75 73 71 71 69 69 68 66 67 69 68 68 73 76 74 77 79 80 78 77 75 76 76 71 67 60 54 51 52 47 39 45 34 36 37 23 6 14 14 24 64 148 175
84 80 77 74 75 73 72 72 71 72 72 72 73 74 73 74 76 76 76 78 75 72 70 69 65 59 54 50 51 44 36 35 24 18 20 4 349 353 343 347 352 316 183
96 91 87 84 79 76 74 74 74 74 73 74 75 73 70 70 70 70 67 68 68 65 67 67 67 63 57 50 47 36 29 24 14 1 356 342 339 331 317 313 305 289 262
99 93 88 85 84 81 78 76 74 74 73 74 74 71 68 68 67 64 62 64 66 64 66 72 73 67 59 49 39 30 20 8 354 342 335 323 325 311 298 290 286 284 290
99 95 91 86 83 80 78 79 77 77 78 75 74 72 68 67 67 64 63 63 65 68 70 77 80 76 66 52 32 17 3 349 336 326 319 312 304 285 279 278 280 282 293
107 101 96 91 85 82 79 79 78 76 80 80 76 74 73 70 68 65 63 61 61 67 72 79 82 81 70 46 30 1 351 337 328 322 316 310 315 320 311 307 289 285 283
114 108 102 96 90 88 86 81 78 78 82 84 82 78 77 73 70 67 62 61 58 59 64 75 83 73 62 29 12 2 339 328 323 318 316 314 321 337 344 339 329 315 298
111 106 99 94 92 90 93 91 86 84 83 83 83 83 85 79 72 73 67 57 51 55 58 73 108 128 270 327 351 357 355 334 325 319 316 321 329 337 326 323 322 314 305
109 105 101 96 90 90 88 87 84 85 84 81 80 81 84 79 71 65 55 37 34 51 13 250 209 219 254 276 333 351 355 338 331 326 321 318 310 313 313 309 309 302 295
113 111 110 107 99 89 86 87 85 85 86 86 81 81 87 81 69 58 26 352 351 323 277 262 241 236 259 272 312 351 340 330 325 322 325 323 305 299 313 312 305 305 302
107 108 104 98 93 87 90 91 89 92 98 105 99 87 87 89 92 110 302 306 312 303 304 300 289 261 260 275 299 335 331 323 319 317 316 317 311 307 310 302 291 294 297
112 109 104 99 101 98 94 93 94 108 136 131 113 82 74 137 178 227 311 330 349 359 352 344 338 336 323 322 330 340 332 311 311 312 312 309 312 312 309 302 273 269 282
112 109 102 95 95 103 100 99 108 150 144 131 125 273 288 249 174 168 357 18 33 30 12 10 4 357 8 15 350 347 342 339 312 302 302 304 310 312 313 312 304 306 305
115 110 109 99 90 105 113 116 162 166 145 145 277 277 288 290 255 188 152 58 51 56 33 27 9 342 343 340 343 339 334 333 324 301 308 312 314 319 319 318 320 323 321
119 115 111 110 110 127 138 164 189 175 168 229 271 277 285 285 289 231 150 131 113 93 64 31 354 327 320 322 329 328 326 328 327 320 317 317 318 325 321 321 324 322 314
123 125 131 140 159 173 192 216 207 181 194 258 280 290 282 261 231 126 116 151 179 174 161 184 252 314 319 310 319 319 316 314 307 314 314 325 334 341 337 333 327 323 331
126 132 145 160 185 199 222 236 224 204 208 260 278 277 274 240 172 131 76 52 141 149 161 186 214 271 288 312 322 325 325 325 328 331 328 332 334 331 328 328 325 324 330